Location: Albany
(35.0000°S, 118.0000°E)
Time: 03:02:36
(UTC-04:00)

ERS-1 Rocket - Visible Passes

Search period start: 21 October 2014 00:00
Search period end: 31 October 2014 00:00
Orbit: 755 x 759 km, 98.7° (Epoch: 19 October)

Date Brightness Start Highest point End Pass type
(mag) Time Alt. Az. Time Alt. Az. Time Alt. Az.
21 Oct 3.7 07:11:43 10° SE 07:16:12 31° E 07:20:39 10° NNE visible
21 Oct 5.1 08:50:40 10° SSW 08:54:49 26° WSW 08:58:55 10° WNW visible
22 Oct 3.4 08:10:58 10° S 08:15:59 63° WSW 08:20:57 10° NNW visible
23 Oct 3.1 07:31:59 10° SSE 07:36:56 51° E 07:41:49 10° N visible
23 Oct 5.7 09:12:08 10° SSW 09:15:15 17° WSW 09:18:21 10° WNW visible
24 Oct 4.2 06:53:58 10° SE 06:57:40 20° E 07:01:20 10° NE visible
24 Oct 4.3 08:31:51 10° S 08:36:33 39° WSW 08:41:12 10° NW visible
25 Oct 2.9 07:52:30 10° SSE 07:57:37 83° ENE 08:02:39 10° NNW visible
25 Oct 6.2 09:35:08 10° SW 09:35:38 10° WSW 09:36:07 10° WSW visible
26 Oct 3.7 07:13:55 10° SE 07:18:27 32° E 07:22:56 10° NNE visible
26 Oct 5.1 08:52:58 10° SSW 08:57:02 25° WSW 09:01:05 10° WNW visible
27 Oct 3.5 08:13:13 10° S 08:18:13 61° WSW 08:23:10 10° NNW visible
28 Oct 3.1 07:34:12 10° SSE 07:39:11 53° E 07:44:05 10° N visible
28 Oct 5.8 09:14:28 10° SSW 09:17:28 16° WSW 09:20:28 10° W visible
29 Oct 4.2 06:56:08 10° SE 06:59:55 21° E 07:03:40 10° NE visible
29 Oct 4.4 08:34:06 10° S 08:38:46 38° WSW 08:43:23 10° NW visible
30 Oct 2.9 07:54:44 10° SSE 07:59:50 86° ENE 08:04:53 10° NNW visible
